This demonstration page uses our WeatherBlox Daily Observations layout. Learn more.

40.92945, -100.16068

Hourly Observations for August 17, 2019

Temp ( °F °C ) Dew Point ( °F °C ) Humidity (%) Winds ( mph kmh ) Pressure ( in mb ) Visibility ( mi km ) Precip ( " mm )
12:15 am 00:15 Partly Cloudy 69 20.3 67 19.6 96 96 Calm 29.88 1012 7 11.265408 0 0
12:35 am 00:35 Partly Cloudy with Light Rain 68 20.2 68 19.9 98 98 SE 9 15 29.83 1010 10 16.09344 0 0
12:55 am 00:55 Partly Cloudy 69 20.5 67 19.6 95 95 SE 24 39 29.71 1006 10 16.09344 0 0
1:15 am 01:15 Partly Cloudy 69 20.5 67 19.7 95 95 NE 12 19 29.71 1006 10 16.09344 0 0
1:35 am 01:35 Partly Cloudy 69 20.6 68 19.8 95 95 ESE 7 11 29.74 1007 10 16.09344 0 0
1:55 am 01:55 Mostly Cloudy 69 20.6 68 20 96 96 E 7 11 29.74 1007 10 16.09344 0 0
2:15 am 02:15 Partly Cloudy 68 19.9 67 19.5 98 98 ENE 3 6 29.71 1006 10 16.09344 0 0
2:35 am 02:35 Partly Cloudy 66 18.9 66 18.7 99 99 Calm 29.68 1005 7 11.265408 0 0
2:55 am 02:55 Clear with Mist and Fog 64 18 64 18 100 100 N 3 6 29.68 1005 4 6.437376 0 0
3:15 am 03:15 Clear with Mist and Fog 64 17.5 64 17.5 100 100 N 5 7 29.65 1004 2 3.218688 0 0
3:35 am 03:35 Mostly Cloudy with Mist and Fog 64 17.5 64 17.5 100 100 Calm 29.68 1005 1.75 2.816352 0 0
3:55 am 03:55 Mostly Cloudy with Mist and Fog 65 18.1 65 18.1 100 100 S 5 7 29.74 1007 3 4.828032 0 0
4:15 am 04:15 Cloudy with Mist and Fog 67 19.5 67 19.5 100 100 SE 13 20 29.74 1007 4 6.437376 0 0
4:35 am 04:35 Cloudy with Mist and Fog 68 20.1 68 20.1 100 100 SE 9 15 29.77 1008 5 8.04672 0 0
4:55 am 04:55 Cloudy with Mist and Fog 69 20.5 69 20.5 100 100 SE 12 19 29.74 1007 3 4.828032 0 0
5:15 am 05:15 Cloudy with Mist and Fog 69 20.7 69 20.7 100 100 ESE 10 17 29.74 1007 3 4.828032 0 0
5:35 am 05:35 Cloudy with Mist and Fog 69 20.8 69 20.7 99 99 SE 8 13 29.74 1007 4 6.437376 0 0
5:55 am 05:55 Cloudy with Mist and Fog 70 21 69 20.8 99 99 SE 9 15 29.74 1007 5 8.04672 0 0
6:15 am 06:15 Cloudy with Mist and Fog 70 21 70 21 100 100 ESE 8 13 29.74 1007 4 6.437376 0 0
6:35 am 06:35 Cloudy with Mist and Fog 70 21.1 70 21 99 99 ESE 9 15 29.77 1008 5 8.04672 0 0
6:55 am 06:55 Cloudy with Mist and Fog 70 21 69 20.8 99 99 ESE 6 9 29.77 1008 5 8.04672 0 0
7:15 am 07:15 Cloudy with Mist and Fog 70 21 69 20.7 98 98 E 5 7 29.77 1008 5 8.04672 0 0
7:35 am 07:35 Cloudy 69 20.7 69 20.5 99 99 ESE 6 9 29.77 1008 7 11.265408 0 0
7:55 am 07:55 Cloudy with Mist and Fog 70 20.9 69 20.6 98 98 ESE 7 11 29.74 1007 4 6.437376 0 0
8:15 am 08:15 Cloudy with Mist and Fog 70 20.9 69 20.6 98 98 SE 7 11 29.74 1007 4 6.437376 0 0
8:35 am 08:35 Mostly Cloudy 70 21 69 20.5 97 97 SE 7 11 29.74 1007 7 11.265408 0 0
8:55 am 08:55 Mostly Cloudy 70 21.2 69 20.8 98 98 SE 6 9 29.74 1007 7 11.265408 0 0
9:15 am 09:15 Partly Cloudy 72 22 70 20.9 94 94 SE 6 9 29.71 1006 10 16.09344 0 0
9:35 am 09:35 Sunny 74 23.1 70 20.9 87 87 SE 9 15 29.71 1006 10 16.09344 0 0
9:55 am 09:55 Sunny 75 23.7 69 20.4 82 82 SSE 9 15 29.71 1006 10 16.09344 0 0
10:15 am 10:15 Sunny 76 24.5 69 20.5 78 78 S 9 15 29.71 1006 10 16.09344 0 0
10:35 am 10:35 Sunny 78 25.4 66 19.1 68 68 SSW 12 19 29.68 1005 10 16.09344 0 0
10:55 am 10:55 Sunny 78 25.6 67 19.4 69 69 S 13 20 29.68 1005 10 16.09344 0 0
11:15 am 11:15 Sunny 79 26 67 19.3 67 67 SSW 13 20 29.68 1005 10 16.09344 0 0
11:35 am 11:35 Sunny 79 26.3 67 19.5 66 66 S 14 22 29.68 1005 10 16.09344 0 0
11:55 am 11:55 Sunny 80 26.6 67 19.2 64 64 SSW 15 24 29.68 1005 10 16.09344 0 0
12:15 pm 12:15 Sunny 81 27 66 18.8 61 61 SSW 14 22 29.65 1004 10 16.09344 0 0
12:35 pm 12:35 Sunny 81 27.2 67 19.3 62 62 SSW 17 28 29.65 1004 10 16.09344 0 0
12:55 pm 12:55 Sunny 81 27.2 66 19.1 61 61 SSW 18 30 29.65 1004 10 16.09344 0 0
1:15 pm 13:15 Sunny 82 27.8 67 19.3 60 60 SSW 14 22 29.62 1003 10 16.09344 0 0
1:35 pm 13:35 Sunny 83 28.2 67 19.7 60 60 SSW 16 26 29.59 1002 10 16.09344 0 0
1:55 pm 13:55 Sunny 83 28.5 67 19.6 59 59 SSW 15 24 29.59 1002 10 16.09344 0 0
2:15 pm 14:15 Sunny 84 28.8 69 20.7 62 62 SSW 17 28 29.59 1002 10 16.09344 0 0
2:35 pm 14:35 Sunny 85 29.2 69 20.8 61 61 S 16 26 29.59 1002 10 16.09344 0 0
2:55 pm 14:55 Sunny 85 29.5 70 21.1 61 61 SSW 14 22 29.59 1002 10 16.09344 0 0
3:15 pm 15:15 Sunny 85 29.7 68 20.2 57 57 S 13 20 29.56 1001 10 16.09344 0 0
3:35 pm 15:35 Sunny 86 30 69 20.4 56 56 S 16 26 29.56 1001 10 16.09344 0 0
3:55 pm 15:55 Sunny 86 30.1 69 20.8 57 57 SSW 16 26 29.56 1001 10 16.09344 0 0
4:15 pm 16:15 Sunny 87 30.3 68 20.2 55 55 S 13 20 29.56 1001 10 16.09344 0 0
4:35 pm 16:35 Sunny 87 30.5 69 20.6 55 55 S 13 20 29.56 1001 10 16.09344 0 0
4:55 pm 16:55 Sunny 87 30.5 69 20.7 56 56 S 14 22 29.53 1000 10 16.09344 0 0
5:15 pm 17:15 Sunny 87 30.5 69 20.6 55 55 S 13 20 29.53 1000 10 16.09344 0 0
5:35 pm 17:35 Sunny 87 30.3 70 21.1 58 58 S 12 19 29.53 1000 10 16.09344 0 0
5:55 pm 17:55 Sunny 85 29.2 71 21.5 63 63 S 10 17 29.53 1000 10 16.09344 0 0
6:15 pm 18:15 Sunny 86 29.9 71 21.9 62 62 S 13 20 29.53 1000 10 16.09344 0 0
6:35 pm 18:35 Sunny 83 28.5 71 21.4 65 65 S 9 15 29.53 1000 10 16.09344 0 0
6:55 pm 18:55 Sunny 82 28 71 21.5 68 68 S 7 11 29.53 1000 10 16.09344 0 0
7:15 pm 19:15 Sunny 81 27.4 70 21.3 69 69 S 7 11 29.56 1001 10 16.09344 0 0
7:35 pm 19:35 Sunny 80 26.5 71 21.5 74 74 S 9 15 29.56 1001 10 16.09344 0 0
7:55 pm 19:55 Sunny 79 26.2 70 21.2 74 74 S 10 17 29.59 1002 10 16.09344 0 0
8:15 pm 20:15 Sunny 79 26 70 21.2 75 75 S 8 13 29.56 1001 10 16.09344 0 0
8:35 pm 20:35 Clear 78 25.8 70 21 75 75 S 6 9 29.56 1001 10 16.09344 0 0
8:55 pm 20:55 Clear 78 25.7 69 20.8 74 74 SSW 10 17 29.56 1001 10 16.09344 0 0
9:15 pm 21:15 Clear 76 24.5 69 20.7 79 79 SSE 5 7 29.56 1001 10 16.09344 0 0
9:35 pm 21:35 Clear 74 23.4 69 20.4 83 83 ESE 3 6 29.59 1002 10 16.09344 0 0
9:55 pm 21:55 Clear 74 23.3 68 20.1 82 82 ESE 5 7 29.59 1002 10 16.09344 0 0
10:15 pm 22:15 Clear 71 21.8 68 19.8 88 88 ESE 6 9 29.62 1003 10 16.09344 0 0
10:35 pm 22:35 Clear 71 21.5 68 19.9 91 91 Calm 29.62 1003 10 16.09344 0 0
10:55 pm 22:55 Clear 70 21 67 19.6 92 92 E 3 6 29.59 1002 10 16.09344 0 0
11:15 pm 23:15 Clear 71 21.6 65 18.3 82 82 N 5 7 29.62 1003 10 16.09344 0 0
11:35 pm 23:35 Clear 70 21 64 17.6 81 81 Calm 29.62 1003 10 16.09344 0 0
11:55 pm 23:55 Clear 69 20.4 62 16.9 80 80 Calm 29.65 1004 10 16.09344 0 0

Powered by AerisWeather